Rome, GA

12:36 PM EST on November 15, 2019 (GMT -0500)
Russell

Weather History for KRMG - September, 2019

Change the Weather History Date:

Thursday, September 26, 2019

  Actual Average Record
Temperature  
Mean Temperature 84 °F 68 °F  
Max Temperature 98 °F 80 °F 92 °F (2016)
Min Temperature 69 °F 56 °F 41 °F (2001)
Degree Days  
Heating Degree Days 0 1  
Month to date heating degree days 0 7  
Since 1 July heating degree days 0 7  
Cooling Degree Days 18 5  
Month to date cooling degree days 385 208  
Year to date cooling degree days 2144 1574  
Growing Degree Days 34 (Base 50)    
Moisture  
Dew Point 65 °F    
Average Humidity 61    
Maximum Humidity 87    
Minimum Humidity 29    
Precipitation  
Precipitation T in 0.14 in 1.27 in (2010)
Month to date precipitation T 2.85  
Year to date precipitation 42.45 38.27  
Sea Level Pressure  
Sea Level Pressure 29.89 in    
Wind  
Wind Speed 2 mph ()    
Max Wind Speed 15 mph    
Max Gust Speed 23 mph    
Visibility 10.0 miles    
Events      
T = Trace of Precipitation, MM = Missing Value Source: Averaged Metar Reports

Daily Weather History Graph

Daily Weather History Graph

Search for Another Location

Airport or City:

Astronomy

Sep. 26, 2019 Rise Set
Actual Time 7:31 AM EDT 7:32 PM EDT
Civil Twilight 7:06 AM EDT 7:57 PM EDT
Nautical Twilight 6:37 AM EDT 8:26 PM EDT
Astronomical Twilight 6:07 AM EDT 8:55 PM EDT
Moon 4:48 AM EDT (9/26) 6:35 PM EDT (9/26)
Length of Visible Light 12h 50m
Length of Day
12h 00m
Waning Crescent, 7% of the Moon is Illuminated
Sep 26
Waning Crescent
Sep 28
New
Oct 5
First Quarter
Oct 13
Full
Oct 21
Last Quarter

Hourly Weather History & Observations

Time (EDT) Temp. Heat Index Dew Point Humidity Pressure Visibility Wind Dir Wind Speed Gust Speed Precip Events Conditions
12:53 AM 72.0 °F - 64.0 °F 76% 29.88 in 10.0 mi Calm Calm - N/A   Clear
1:53 AM 71.1 °F - 64.0 °F 78% 29.87 in 10.0 mi Calm Calm - N/A   Mostly Cloudy
2:53 AM 72.0 °F - 64.9 °F 78% 29.86 in 10.0 mi Calm Calm - N/A   Mostly Cloudy
3:53 AM 72.0 °F - 64.9 °F 78% 29.86 in 10.0 mi Calm Calm - N/A   Overcast
4:53 AM 71.1 °F - 66.0 °F 84% 29.87 in 10.0 mi Calm Calm - N/A   Overcast
5:53 AM 72.0 °F - 64.9 °F 78% 29.88 in 10.0 mi NNE 3.5 mph - N/A   Mostly Cloudy
6:53 AM 70.0 °F - 64.9 °F 84% 29.90 in 10.0 mi Calm Calm - N/A   Clear
7:53 AM 69.1 °F - 64.9 °F 87% 29.92 in 10.0 mi Calm Calm - N/A   Scattered Clouds
8:53 AM 72.0 °F - 66.0 °F 81% 29.94 in 10.0 mi Calm Calm - N/A   Scattered Clouds
9:53 AM 79.0 °F - 66.0 °F 64% 29.94 in 10.0 mi South 3.5 mph - N/A   Scattered Clouds
10:53 AM 86.0 °F 90.1 °F 69.1 °F 57% 29.94 in 10.0 mi Calm Calm - N/A   Scattered Clouds
11:53 AM 91.9 °F 94.5 °F 66.0 °F 42% 29.92 in 10.0 mi NW 8.1 mph - N/A   Clear
12:53 PM 91.9 °F 94.1 °F 64.9 °F 41% 29.91 in 10.0 mi West 8.1 mph - N/A   Partly Cloudy
1:53 PM 90.0 °F 92.4 °F 66.0 °F 45% 29.89 in 10.0 mi NW 3.5 mph - 0.00 in   Mostly Cloudy
2:53 PM 97.0 °F 96.9 °F 60.1 °F 29% 29.86 in 10.0 mi NW 11.5 mph 18.4 mph N/A   Scattered Clouds
3:53 PM 93.9 °F 94.0 °F 61.0 °F 33% 29.85 in 10.0 mi NW 10.4 mph - N/A   Mostly Cloudy
4:53 PM 96.1 °F 96.9 °F 62.1 °F 32% 29.84 in 10.0 mi WNW 9.2 mph - N/A   Clear
5:53 PM 95.0 °F 95.2 °F 61.0 °F 32% 29.84 in 10.0 mi West 8.1 mph - N/A   Clear
6:53 PM 93.0 °F 93.0 °F 61.0 °F 34% 29.85 in 10.0 mi NW 6.9 mph - N/A   Clear
7:53 PM 82.9 °F 85.0 °F 66.0 °F 56% 29.88 in 10.0 mi ENE 10.4 mph - N/A   Mostly Cloudy
8:53 PM 81.0 °F 83.0 °F 66.0 °F 60% 29.89 in 10.0 mi NE 3.5 mph - N/A   Mostly Cloudy
9:53 PM 79.0 °F - 66.0 °F 64% 29.90 in 10.0 mi NE 5.8 mph - N/A   Clear
10:53 PM 78.1 °F - 66.9 °F 68% 29.92 in 10.0 mi Calm Calm - N/A   Clear
11:53 PM 77.0 °F - 66.9 °F 71% 29.92 in 10.0 mi NNW 3.5 mph - N/A   Clear